Weather History for KLAR - March, 2013

Change the Weather History Date:

Saturday, March 16, 2013

  Actual Average Record
Temperature  
Mean Temperature 39 °F 31 °F  
Max Temperature 50 °F 43 °F 65 °F (2015)
Min Temperature 28 °F 19 °F -6 °F (2002)
Degree Days  
Heating Degree Days 26 34  
Month to date heating degree days 511 574  
Since 1 July heating degree days 6415 6750  
Cooling Degree Days 0 0  
Month to date cooling degree days 0 0  
Year to date cooling degree days 0 0  
Moisture  
Dew Point 21 °F    
Average Humidity 54    
Maximum Humidity 79    
Minimum Humidity 21    
Precipitation  
Precipitation 0.00 in 0.02 in 0.26 in (1966)
Month to date precipitation 0.20 0.27  
Year to date precipitation 0.77 0.88  
Sea Level Pressure  
Sea Level Pressure 29.80 in    
Wind  
Wind Speed 15 mph (WSW)    
Max Wind Speed 37 mph    
Max Gust Speed 43 mph    
Visibility 10 miles    
Events      
T = Trace of Precipitation, MM = Missing Value Source: NWS Daily Summary

Daily Weather History Graph

Daily Weather History Graph

Search for Another Location

Airport or City:

Trip Planner

Search our weather history database for the weather conditions in past years. The results will help you decide how hot, cold, wet, or windy it might be!

Date:

Astronomy

Mar. 16, 2013 Rise Set
Actual Time 7:12 AM MDT 7:10 PM MDT
Civil Twilight 6:44 AM MDT 7:38 PM MDT
Nautical Twilight 6:12 AM MDT 8:10 PM MDT
Astronomical Twilight 5:40 AM MDT 8:43 PM MDT
Moon 9:40 AM MDT (3/16) No Moon Set
Length of Visible Light 12h 53m
Length of Day
11h 58m
Waxing Crescent, 23% of the Moon is Illuminated
Mar 16
Waxing Crescent
Mar 19
First Quarter
Mar 27
Full
Apr 2
Last Quarter
Apr 10
New

Hourly Weather History & Observations

Time (MDT) Temp. Windchill Dew Point Humidity Pressure Visibility Wind Dir Wind Speed Gust Speed Precip Events Conditions
12:53 AM 37.9 °F 28.5 °F 28.9 °F 70% 29.83 in 10.0 mi WSW 17.3 mph - N/A   Partly Cloudy
1:53 AM 37.9 °F 29.6 °F 28.0 °F 68% 29.80 in 10.0 mi SW 13.8 mph - N/A   Clear
2:53 AM 35.1 °F 26.4 °F 26.1 °F 70% 29.82 in - SSW 12.7 mph - N/A   Clear
3:53 AM 34.0 °F 26.0 °F 26.1 °F 73% 29.81 in 10.0 mi SW 10.4 mph - N/A   Clear
4:53 AM 34.0 °F 26.0 °F 25.0 °F 70% 29.81 in - WSW 10.4 mph - N/A   Clear
5:53 AM 32.0 °F 27.5 °F 26.1 °F 79% 29.84 in 10.0 mi ESE 4.6 mph - N/A   Clear
6:53 AM 30.9 °F 18.7 °F 24.1 °F 76% 29.86 in 10.0 mi SE 19.6 mph - N/A   Clear
7:53 AM 30.9 °F 19.4 °F 25.0 °F 79% 29.86 in 10.0 mi SE 17.3 mph - N/A   Clear
8:53 AM 32.0 °F 18.9 °F 26.1 °F 79% 29.85 in 10.0 mi SSE 24.2 mph 31.1 mph N/A   Clear
9:53 AM 34.0 °F 21.3 °F 27.0 °F 75% 29.84 in - SSE 25.3 mph 29.9 mph N/A   Mostly Cloudy
10:53 AM 39.0 °F 29.3 °F 28.0 °F 65% 29.79 in - SSE 19.6 mph - N/A   Clear
11:51 AM 46.4 °F 39.8 °F 21.2 °F 37% 29.89 in - WSW 16.1 mph 19.6 mph N/A   Scattered Clouds
11:53 AM 46.9 °F - 21.9 °F 37% 29.75 in - SW 15.0 mph 19.6 mph N/A   Scattered Clouds
12:26 PM 44.6 °F 37.8 °F 24.8 °F 46% 29.89 in - North 15.0 mph 20.7 mph N/A   Overcast
12:53 PM 44.1 °F 35.0 °F 27.0 °F 51% 29.77 in 10.0 mi WNW 24.2 mph 31.1 mph N/A   Overcast
1:53 PM 45.0 °F 37.4 °F 26.1 °F 48% 29.75 in 10.0 mi West 18.4 mph - N/A   Scattered Clouds
2:53 PM 46.9 °F - 21.9 °F 37% 29.73 in - West 25.3 mph 33.4 mph N/A   Scattered Clouds
3:53 PM 48.9 °F - 19.0 °F 31% 29.69 in - WNW 28.8 mph 35.7 mph N/A   Clear
4:53 PM 48.9 °F - 14.0 °F 25% 29.70 in 10.0 mi WNW 21.9 mph 33.4 mph N/A   Partly Cloudy
5:53 PM 46.9 °F - 9.0 °F 21% 29.72 in - NW 24.2 mph 32.2 mph N/A   Clear
6:53 PM 42.1 °F 35.2 °F 15.1 °F 34% 29.77 in - West 12.7 mph - N/A   Clear
7:53 PM 34.0 °F 26.0 °F 16.0 °F 48% 29.82 in - West 10.4 mph - N/A   Clear
8:53 PM 33.1 °F 25.5 °F 15.1 °F 48% 29.82 in 10.0 mi West 9.2 mph - N/A   Clear
9:53 PM 30.9 °F 25.2 °F 12.9 °F 47% 29.83 in 10.0 mi WSW 5.8 mph - N/A   Clear
10:53 PM 30.0 °F 22.4 °F 12.9 °F 49% 29.78 in - West 8.1 mph - N/A   Clear
11:53 PM 32.0 °F - 10.9 °F 42% 29.71 in - Calm Calm - N/A   Clear